SCP
0 0 0 0 0 0 0 0 0 0 0 0 0 0 0 0 0 0 0 0 0 0 0 0 0 0 0 0 0 0 0 0 -0 -0 -0 -0 0 0 0 0 0 0 0
0 0 0 0 0 0 0 0 0 0 0 0 0 0 0 0 0 0 0 0 0 0 0 0 0 0 0 0 0 0 0 -0 -0 0 0 -0 -0 0 0 0 0 0 0
0 0 0 0 0 0 0 0 0 0 0 0 0 0 0 0 0 0 0 0 0 0 0 0 0 0 0 0 0 0 0 0 0 0 0 0 0 0 0 0 0 0 0
0 0 0 0 0 0 0 0 0 0 0 0 0 0 0 0 0 0 0 0 0 0 0 0 0 0 0 0 0 0 0 0 0 0 0 0 0 0 0 0 0 0 0
0 0 0 0 0 0 0 0 0 0 0 0 0 0 0 0 0 0 0 0 0 0 0 0 0 0 0 0 0 0 0 0 0 0 0 0 0 0 0 -0 0 0 0
1 0 0 0 0 0 0 0 0 0 0 0 0 0 0 0 0 0 0 0 0 0 0 0 0 0 0 0 0 0 0 0 0 0 0 0 0 0 0 0 0 0 0
0 0 0 0 0 0 0 0 0 0 0 0 0 0 0 0 0 0 0 0 0 0 0 0 0 0 0 0 0 0 0 0 0 0 0 0 0 0 0 0 0 0 0
0 0 0 0 0 0 0 0 0 0 0 0 0 0 0 0 0 0 0 0 0 0 0 0 0 0 0 0 0 0 0 0 0 0 0 0 0 0 0 0 0 0 0
0 0 0 0 0 0 0 0 0 0 0 0 0 0 0 0 0 0 0 0 0 0 0 0 0 0 0 0 0 0 0 0 0 0 0 0 0 0 0 0 0 0 0
0 0 0 0 0 0 0 0 0 0 0 0 0 0 0 0 0 0 0 0 0 0 0 0 0 0 0 0 0 0 0 0 0 0 0 0 0 0 0 0 0 0 0
0 0 0 0 0 0 0 0 0 0 0 0 0 0 0 0 0 0 0 0 0 0 0 0 0 0 0 0 0 0 0 0 0 0 0 0 0 0 0 0 0 0 0
0 0 0 0 0 0 0 0 0 0 0 0 0 0 0 0 0 0 0 0 0 0 0 0 0 0 0 0 0 0 0 0 0 0 0 0 0 0 0 0 0 0 0
0 0 0 0 0 0 0 0 0 0 0 0 0 0 0 0 0 0 0 0 0 0 0 0 0 0 0 0 0 0 0 0 0 0 0 0 0 0 0 0 0 0 0
0 0 0 0 0 0 0 0 0 0 0 0 0 0 0 0 0 0 0 0 0 0 0 0 0 0 0 0 0 0 0 0 0 0 0 0 0 0 -0 0 0 0 0
0 0 0 0 0 0 0 0 0 0 0 0 0 0 0 0 0 0 0 0 0 0 0 0 0 0 0 0 0 0 0 0 0 0 0 0 0 0 0 0 0 0 0
0 0 0 0 0 0 0 0 0 0 0 0 0 0 0 0 0 0 0 0 0 0 0 0 0 0 0 0 0 0 0 0 0 0 0 0 0 0 0 0 0 0 0
0 0 0 0 0 0 0 0 0 0 0 0 0 0 0 0 0 0 0 0 0 0 0 0 0 0 0 0 0 0 0 0 0 0 0 0 0 0 0 0 0 0 0
0 0 0 0 0 0 0 0 0 0 0 0 0 0 0 0 0 0 0 0 0 0 0 0 0 0 0 0 0 0 0 0 0 0 0 0 0 0 0 0 0 0 0
0 0 0 0 0 0 0 0 0 0 0 0 0 0 0 0 0 0 0 0 0 0 0 0 0 0 0 0 0 0 0 0 0 0 0 0 0 0 -0 -0 0 0 0
0 0 0 0 0 0 0 0 0 0 0 0 0 0 0 0 0 0 0 0 0 0 0 0 0 0 0 0 0 0 0 0 0 0 0 0 0 0 -0 -0 0 0 0
0 0 0 0 0 0 0 0 0 0 0 0 0 0 0 0 0 0 0 0 0 0 0 0 0 0 0 0 0 0 0 0 0 0 0 0 0 0 0 -0 0 0 0
0 0 0 0 0 0 0 0 0 0 0 0 0 0 0 0 0 0 0 0 0 0 0 0 0 0 0 0 0 0 0 0 0 0 0 0 0 0 0 -0 0 0 0
0 0 0 0 0 0 0 0 0 0 0 0 0 0 0 0 0 0 0 0 0 0 0 0 0 0 0 0 0 0 0 0 0 0 0 0 0 0 -0 0 0 0 0
0 0 0 0 0 0 0 0 0 0 0 0 0 0 0 0 0 0 0 0 0 0 0 0 0 0 0 0 0 0 0 0 0 -0 -0 0 0 0 0 0 0 0 0
0 0 0 0 0 0 0 0 0 0 0 0 0 0 0 0 0 0 0 0 0 0 0 0 0 0 0 0 0 0 0 0 0 0 -0 -0 -0 0 0 0 0 0 0
0 0 0 0 0 0 0 0 0 0 0 0 0 0 0 0 0 0 0 0 0 0 0 0 0 0 0 -0 0 0 0 -0 0 0 -0 -0 0 0 0 0 -0 -0 -0
Wind_Speed_500mb
35 31 30 29 28 29 29 29 31 32 33 34 35 40 45 48 48 46 49 50 51 47 40 36 32 36 28 28 29 33 35 26 19 24 19 27 40 45 28 29 38 31 39
33 32 30 30 30 30 33 36 34 32 33 35 39 43 46 47 46 50 50 50 46 43 41 33 24 30 25 24 31 35 29 26 27 19 29 23 38 33 27 30 26 32 35
34 35 32 28 27 32 31 35 37 35 37 40 42 44 43 42 48 49 49 43 38 31 23 27 26 25 25 27 33 33 30 29 31 34 34 30 42 32 31 38 42 39 35
40 42 40 38 28 39 39 36 37 40 41 44 43 43 41 46 48 46 42 39 32 25 22 28 25 24 26 31 33 36 36 34 29 37 35 43 43 45 38 44 44 45 45
48 48 47 41 49 50 31 57 43 44 44 42 43 42 45 48 45 42 36 30 25 18 15 19 24 25 27 32 35 36 36 29 30 28 29 39 41 50 47 47 45 40 43
51 51 55 53 33 31 38 56 47 42 41 42 40 42 47 45 35 23 23 24 19 17 16 17 19 21 23 28 33 36 40 36 27 30 36 36 36 39 48 51 46 41 41
58 57 58 58 32 43 50 48 44 40 39 37 38 43 42 29 11 22 16 18 18 14 11 12 14 18 22 25 28 32 38 44 38 39 39 42 45 46 46 45 45 40 40
58 55 59 61 42 49 36 42 40 35 35 33 37 39 15 22 24 14 27 20 16 18 20 21 26 33 39 44 50 51 51 47 42 40 42 40 39 39 43 48 44 45 35
57 62 61 54 33 30 44 42 32 30 30 32 32 23 10 11 18 19 21 16 21 18 22 30 32 41 46 50 52 53 50 43 36 38 43 42 44 48 44 49 47 42 43
61 67 67 55 25 43 53 32 28 28 30 29 29 26 21 20 7 9 11 19 23 28 31 34 38 48 49 47 51 49 47 43 39 41 43 44 44 47 46 46 46 45 41
81 84 73 55 46 51 29 27 25 26 28 28 24 19 17 13 15 16 27 27 30 32 39 44 46 53 43 47 49 53 51 41 48 44 49 41 38 42 48 48 47 45 46
78 73 49 42 31 27 23 22 23 25 24 22 18 14 15 17 21 28 38 42 47 46 45 48 51 51 51 48 52 52 49 50 53 52 53 49 40 44 47 42 41 44 45
58 56 39 28 24 20 18 19 22 19 19 16 12 13 19 21 24 34 46 53 56 58 56 58 58 57 60 45 47 48 54 51 46 53 49 46 47 49 42 49 44 42 41
38 35 24 21 20 16 16 21 20 17 15 12 14 17 19 23 28 38 44 49 59 55 55 65 67 59 55 50 51 51 55 48 43 43 43 49 45 43 43 41 38 41 40
26 22 24 19 18 18 21 19 16 14 18 21 21 25 29 27 28 39 41 44 51 59 59 60 59 62 52 53 48 56 57 51 46 45 44 40 43 48 47 49 44 41 44
24 27 24 16 16 19 16 15 19 22 27 27 30 32 33 32 37 40 43 50 51 60 55 62 63 57 51 50 50 53 60 58 47 45 43 41 42 47 46 47 47 44 42
18 12 12 11 14 13 17 21 25 26 28 27 29 32 32 36 40 44 50 50 53 64 64 60 58 56 53 58 57 66 53 55 42 38 40 45 47 48 47 51 47 43 45
6 5 7 7 11 16 19 22 22 25 28 29 27 28 34 36 43 52 53 58 62 62 61 60 62 65 63 61 67 49 47 42 37 35 38 43 49 49 47 50 47 40 40
4 3 5 10 12 15 19 22 24 23 24 26 28 31 37 44 51 52 62 61 58 59 58 62 71 62 63 71 61 41 42 37 37 41 40 45 40 35 30 31 32 35 40
4 6 6 10 15 20 20 20 22 23 27 33 39 47 50 53 58 59 58 56 59 59 60 62 55 60 69 66 36 37 44 34 41 39 38 34 29 24 28 27 31 30 28
3 6 11 14 19 20 18 20 28 34 39 45 48 52 52 52 55 51 50 54 59 60 64 66 66 61 53 36 28 35 42 36 37 37 33 22 25 20 19 31 23 17 19
7 10 13 20 23 20 22 32 39 42 46 42 48 47 49 51 56 59 62 65 67 49 40 42 47 38 45 43 38 32 41 32 36 39 40 24 12 11 19 20 12 16 18
12 13 19 23 21 28 38 40 39 43 43 47 50 53 56 60 67 66 56 56 53 47 44 41 41 32 31 35 35 34 21 31 32 39 30 18 9 13 18 15 16 13 16
15 20 19 20 30 37 42 43 41 42 47 54 57 60 63 60 50 44 40 41 40 35 29 24 25 27 30 32 33 33 31 27 35 32 18 18 16 20 14 3 15 10 17
19 13 22 30 36 40 44 43 43 51 60 64 63 58 49 39 34 34 38 39 39 34 28 29 29 30 30 27 25 28 21 24 31 15 10 10 18 23 9 2 23 20 24
11 20 29 37 39 38 40 44 55 63 67 61 49 42 40 33 37 38 34 37 40 38 32 26 23 13 13 6 5 8 10 14 14 10 4 17 16 23 17 9 21 20 31
Wind_Direction_500mb
248 246 240 244 250 254 262 274 279 277 282 285 289 297 302 307 307 304 304 302 300 296 290 285 271 276 289 283 286 293 305 321 310 319 336 323 340 330 316 297 285 287 270
241 239 244 249 255 263 271 274 274 275 282 287 292 297 301 300 299 303 306 304 299 290 284 276 257 261 289 278 281 280 300 316 298 299 303 301 321 318 308 320 312 282 276
238 243 251 260 273 270 273 271 277 277 282 286 290 295 300 303 307 309 310 310 309 298 272 260 266 254 272 278 269 272 286 299 305 316 302 303 316 293 295 305 314 305 278
249 251 252 256 270 278 270 280 282 276 280 285 291 298 300 306 308 310 310 313 319 314 278 264 258 262 266 269 281 286 286 291 293 300 297 301 302 302 293 297 303 304 293
253 257 259 262 266 266 278 297 278 273 280 284 291 293 300 304 307 303 300 302 310 307 284 263 264 266 269 272 275 281 286 281 282 275 288 293 291 295 298 293 292 296 297
255 256 257 251 260 330 270 277 267 270 275 283 288 298 304 308 302 293 296 307 300 294 280 266 261 263 267 267 267 271 263 267 283 289 292 279 285 291 294 286 278 287 292
253 250 252 245 226 287 267 264 265 273 275 283 298 303 306 313 284 294 300 313 295 295 293 280 282 283 280 283 283 279 277 281 288 284 280 286 288 290 289 279 271 280 294
250 252 255 250 253 284 278 261 268 267 276 292 301 306 306 299 280 269 305 298 288 299 301 306 305 305 304 302 299 296 295 295 291 285 286 289 291 292 289 290 283 268 275
258 260 246 267 265 310 286 255 261 270 281 295 297 297 293 245 280 285 308 302 300 300 310 324 332 331 323 314 309 303 296 289 288 286 286 290 293 287 289 285 288 277 266
268 260 243 268 235 291 265 253 264 274 289 296 293 294 286 277 270 295 291 317 320 313 312 321 326 326 321 322 325 324 312 277 279 286 289 293 301 287 281 277 284 287 277
264 265 259 234 237 256 241 251 267 284 294 291 292 287 275 261 277 282 293 309 309 309 308 308 312 322 319 319 320 319 312 299 280 281 282 282 293 300 295 282 278 279 278
257 264 245 240 229 228 233 254 275 289 290 298 302 295 284 280 290 284 284 299 303 303 302 301 308 310 321 310 313 316 309 302 282 282 281 278 286 294 297 293 283 274 273
247 241 233 230 214 214 239 271 289 291 301 306 308 305 299 290 284 288 291 295 296 299 300 302 309 309 317 306 311 310 313 312 288 282 283 287 286 290 296 294 283 277 269
266 222 221 212 213 231 262 282 285 294 302 309 313 312 302 295 284 294 296 300 300 296 300 302 306 309 313 310 311 310 313 309 296 286 283 284 289 292 305 298 283 274 267
231 222 217 215 221 250 270 279 294 303 304 308 303 287 283 286 284 286 296 302 302 299 297 299 296 308 310 311 309 310 310 310 294 286 285 281 292 295 296 298 286 276 272
219 223 210 205 244 261 275 297 305 309 306 305 294 288 285 287 291 297 297 297 301 303 297 301 301 302 302 297 302 310 306 307 295 288 281 278 280 289 292 294 292 278 271
220 213 215 238 258 281 300 308 311 309 304 300 300 296 291 295 293 299 299 295 301 304 296 299 298 300 295 296 303 313 295 302 295 288 284 281 284 285 291 290 285 277 271
157 213 223 253 292 302 306 311 311 307 305 304 308 296 298 301 301 301 298 296 292 297 295 295 297 298 294 297 314 306 297 295 294 299 300 296 289 286 289 291 278 268 270
168 169 311 317 311 316 320 316 315 318 314 312 317 309 300 297 287 286 283 285 289 287 288 288 290 287 292 303 311 298 300 294 294 292 304 306 293 294 292 296 280 269 266
345 351 354 339 331 332 327 323 328 327 316 311 303 297 295 291 292 293 295 293 292 293 292 285 283 292 300 306 289 304 306 294 295 304 309 306 305 291 295 292 292 282 276
357 5 357 344 334 326 323 319 322 316 312 308 307 306 303 304 306 306 302 297 297 297 295 294 293 293 285 297 299 300 300 295 302 314 309 301 289 285 294 293 310 297 290
14 357 335 329 324 316 317 317 315 313 310 308 314 308 304 304 304 304 301 298 299 306 306 303 301 291 289 283 295 297 295 293 296 319 316 327 285 295 318 313 292 302 294
357 334 320 318 325 326 323 316 314 311 310 317 314 311 310 310 309 305 306 306 304 301 297 297 282 272 275 277 281 284 293 290 292 312 310 330 337 331 318 302 334 313 329
330 322 321 327 329 324 318 312 309 312 316 315 314 315 317 317 315 318 326 329 331 328 319 315 306 299 290 288 279 277 265 288 300 311 305 317 338 340 324 223 8 334 325
321 325 326 326 322 315 311 311 312 314 315 317 319 320 323 326 334 330 329 328 332 328 321 319 310 297 289 293 283 263 252 266 299 313 317 323 328 349 348 167 5 349 328
317 329 324 321 320 318 317 316 317 317 318 322 330 333 348 350 340 336 330 330 331 335 336 329 332 335 305 286 62 192 226 291 297 326 342 330 333 350 344 358 352 343 338
Wind_Speed_850mb
35 31 30 29 28 29 29 29 31 32 33 34 35 40 45 48 48 46 49 50 51 47 40 36 32 36 28 28 29 33 35 26 19 24 19 27 40 45 28 29 38 31 39
33 32 30 30 30 30 33 36 34 32 33 35 39 43 46 47 46 50 50 50 46 43 41 33 24 30 25 24 31 35 29 26 27 19 29 23 38 33 27 30 26 32 35
34 35 32 28 27 32 31 35 37 35 37 40 42 44 43 42 48 49 49 43 38 31 23 27 26 25 25 27 33 33 30 29 31 34 34 30 42 32 31 38 42 39 35
40 42 40 38 28 39 39 36 37 40 41 44 43 43 41 46 48 46 42 39 32 25 22 28 25 24 26 31 33 36 36 34 29 37 35 43 43 45 38 44 44 45 45
48 48 47 41 49 50 31 57 43 44 44 42 43 42 45 48 45 42 36 30 25 18 15 19 24 25 27 32 35 36 36 29 30 28 29 39 41 50 47 47 45 40 43
51 51 55 53 33 31 38 56 47 42 41 42 40 42 47 45 35 23 23 24 19 17 16 17 19 21 23 28 33 36 40 36 27 30 36 36 36 39 48 51 46 41 41
58 57 58 58 32 43 50 48 44 40 39 37 38 43 42 29 11 22 16 18 18 14 11 12 14 18 22 25 28 32 38 44 38 39 39 42 45 46 46 45 45 40 40
58 55 59 61 42 49 36 42 40 35 35 33 37 39 15 22 24 14 27 20 16 18 20 21 26 33 39 44 50 51 51 47 42 40 42 40 39 39 43 48 44 45 35
57 62 61 54 33 30 44 42 32 30 30 32 32 23 10 11 18 19 21 16 21 18 22 30 32 41 46 50 52 53 50 43 36 38 43 42 44 48 44 49 47 42 43
61 67 67 55 25 43 53 32 28 28 30 29 29 26 21 20 7 9 11 19 23 28 31 34 38 48 49 47 51 49 47 43 39 41 43 44 44 47 46 46 46 45 41
81 84 73 55 46 51 29 27 25 26 28 28 24 19 17 13 15 16 27 27 30 32 39 44 46 53 43 47 49 53 51 41 48 44 49 41 38 42 48 48 47 45 46
78 73 49 42 31 27 23 22 23 25 24 22 18 14 15 17 21 28 38 42 47 46 45 48 51 51 51 48 52 52 49 50 53 52 53 49 40 44 47 42 41 44 45
58 56 39 28 24 20 18 19 22 19 19 16 12 13 19 21 24 34 46 53 56 58 56 58 58 57 60 45 47 48 54 51 46 53 49 46 47 49 42 49 44 42 41
38 35 24 21 20 16 16 21 20 17 15 12 14 17 19 23 28 38 44 49 59 55 55 65 67 59 55 50 51 51 55 48 43 43 43 49 45 43 43 41 38 41 40
26 22 24 19 18 18 21 19 16 14 18 21 21 25 29 27 28 39 41 44 51 59 59 60 59 62 52 53 48 56 57 51 46 45 44 40 43 48 47 49 44 41 44
24 27 24 16 16 19 16 15 19 22 27 27 30 32 33 32 37 40 43 50 51 60 55 62 63 57 51 50 50 53 60 58 47 45 43 41 42 47 46 47 47 44 42
18 12 12 11 14 13 17 21 25 26 28 27 29 32 32 36 40 44 50 50 53 64 64 60 58 56 53 58 57 66 53 55 42 38 40 45 47 48 47 51 47 43 45
6 5 7 7 11 16 19 22 22 25 28 29 27 28 34 36 43 52 53 58 62 62 61 60 62 65 63 61 67 49 47 42 37 35 38 43 49 49 47 50 47 40 40
4 3 5 10 12 15 19 22 24 23 24 26 28 31 37 44 51 52 62 61 58 59 58 62 71 62 63 71 61 41 42 37 37 41 40 45 40 35 30 31 32 35 40
4 6 6 10 15 20 20 20 22 23 27 33 39 47 50 53 58 59 58 56 59 59 60 62 55 60 69 66 36 37 44 34 41 39 38 34 29 24 28 27 31 30 28
3 6 11 14 19 20 18 20 28 34 39 45 48 52 52 52 55 51 50 54 59 60 64 66 66 61 53 36 28 35 42 36 37 37 33 22 25 20 19 31 23 17 19
7 10 13 20 23 20 22 32 39 42 46 42 48 47 49 51 56 59 62 65 67 49 40 42 47 38 45 43 38 32 41 32 36 39 40 24 12 11 19 20 12 16 18
12 13 19 23 21 28 38 40 39 43 43 47 50 53 56 60 67 66 56 56 53 47 44 41 41 32 31 35 35 34 21 31 32 39 30 18 9 13 18 15 16 13 16
15 20 19 20 30 37 42 43 41 42 47 54 57 60 63 60 50 44 40 41 40 35 29 24 25 27 30 32 33 33 31 27 35 32 18 18 16 20 14 3 15 10 17
19 13 22 30 36 40 44 43 43 51 60 64 63 58 49 39 34 34 38 39 39 34 28 29 29 30 30 27 25 28 21 24 31 15 10 10 18 23 9 2 23 20 24
11 20 29 37 39 38 40 44 55 63 67 61 49 42 40 33 37 38 34 37 40 38 32 26 23 13 13 6 5 8 10 14 14 10 4 17 16 23 17 9 21 20 31
Wind_Direction_850mb
248 246 240 244 250 254 262 274 279 277 282 285 289 297 302 307 307 304 304 302 300 296 290 285 271 276 289 283 286 293 305 321 310 319 336 323 340 330 316 297 285 287 270
241 239 244 249 255 263 271 274 274 275 282 287 292 297 301 300 299 303 306 304 299 290 284 276 257 261 289 278 281 280 300 316 298 299 303 301 321 318 308 320 312 282 276
238 243 251 260 273 270 273 271 277 277 282 286 290 295 300 303 307 309 310 310 309 298 272 260 266 254 272 278 269 272 286 299 305 316 302 303 316 293 295 305 314 305 278
249 251 252 256 270 278 270 280 282 276 280 285 291 298 300 306 308 310 310 313 319 314 278 264 258 262 266 269 281 286 286 291 293 300 297 301 302 302 293 297 303 304 293
253 257 259 262 266 266 278 297 278 273 280 284 291 293 300 304 307 303 300 302 310 307 284 263 264 266 269 272 275 281 286 281 282 275 288 293 291 295 298 293 292 296 297
255 256 257 251 260 330 270 277 267 270 275 283 288 298 304 308 302 293 296 307 300 294 280 266 261 263 267 267 267 271 263 267 283 289 292 279 285 291 294 286 278 287 292
253 250 252 245 226 287 267 264 265 273 275 283 298 303 306 313 284 294 300 313 295 295 293 280 282 283 280 283 283 279 277 281 288 284 280 286 288 290 289 279 271 280 294
250 252 255 250 253 284 278 261 268 267 276 292 301 306 306 299 280 269 305 298 288 299 301 306 305 305 304 302 299 296 295 295 291 285 286 289 291 292 289 290 283 268 275
258 260 246 267 265 310 286 255 261 270 281 295 297 297 293 245 280 285 308 302 300 300 310 324 332 331 323 314 309 303 296 289 288 286 286 290 293 287 289 285 288 277 266
268 260 243 268 235 291 265 253 264 274 289 296 293 294 286 277 270 295 291 317 320 313 312 321 326 326 321 322 325 324 312 277 279 286 289 293 301 287 281 277 284 287 277
264 265 259 234 237 256 241 251 267 284 294 291 292 287 275 261 277 282 293 309 309 309 308 308 312 322 319 319 320 319 312 299 280 281 282 282 293 300 295 282 278 279 278
257 264 245 240 229 228 233 254 275 289 290 298 302 295 284 280 290 284 284 299 303 303 302 301 308 310 321 310 313 316 309 302 282 282 281 278 286 294 297 293 283 274 273
247 241 233 230 214 214 239 271 289 291 301 306 308 305 299 290 284 288 291 295 296 299 300 302 309 309 317 306 311 310 313 312 288 282 283 287 286 290 296 294 283 277 269
266 222 221 212 213 231 262 282 285 294 302 309 313 312 302 295 284 294 296 300 300 296 300 302 306 309 313 310 311 310 313 309 296 286 283 284 289 292 305 298 283 274 267
231 222 217 215 221 250 270 279 294 303 304 308 303 287 283 286 284 286 296 302 302 299 297 299 296 308 310 311 309 310 310 310 294 286 285 281 292 295 296 298 286 276 272
219 223 210 205 244 261 275 297 305 309 306 305 294 288 285 287 291 297 297 297 301 303 297 301 301 302 302 297 302 310 306 307 295 288 281 278 280 289 292 294 292 278 271
220 213 215 238 258 281 300 308 311 309 304 300 300 296 291 295 293 299 299 295 301 304 296 299 298 300 295 296 303 313 295 302 295 288 284 281 284 285 291 290 285 277 271
157 213 223 253 292 302 306 311 311 307 305 304 308 296 298 301 301 301 298 296 292 297 295 295 297 298 294 297 314 306 297 295 294 299 300 296 289 286 289 291 278 268 270
168 169 311 317 311 316 320 316 315 318 314 312 317 309 300 297 287 286 283 285 289 287 288 288 290 287 292 303 311 298 300 294 294 292 304 306 293 294 292 296 280 269 266
345 351 354 339 331 332 327 323 328 327 316 311 303 297 295 291 292 293 295 293 292 293 292 285 283 292 300 306 289 304 306 294 295 304 309 306 305 291 295 292 292 282 276
357 5 357 344 334 326 323 319 322 316 312 308 307 306 303 304 306 306 302 297 297 297 295 294 293 293 285 297 299 300 300 295 302 314 309 301 289 285 294 293 310 297 290
14 357 335 329 324 316 317 317 315 313 310 308 314 308 304 304 304 304 301 298 299 306 306 303 301 291 289 283 295 297 295 293 296 319 316 327 285 295 318 313 292 302 294
357 334 320 318 325 326 323 316 314 311 310 317 314 311 310 310 309 305 306 306 304 301 297 297 282 272 275 277 281 284 293 290 292 312 310 330 337 331 318 302 334 313 329
330 322 321 327 329 324 318 312 309 312 316 315 314 315 317 317 315 318 326 329 331 328 319 315 306 299 290 288 279 277 265 288 300 311 305 317 338 340 324 223 8 334 325
321 325 326 326 322 315 311 311 312 314 315 317 319 320 323 326 334 330 329 328 332 328 321 319 310 297 289 293 283 263 252 266 299 313 317 323 328 349 348 167 5 349 328
317 329 324 321 320 318 317 316 317 317 318 322 330 333 348 350 340 336 330 330 331 335 336 329 332 335 305 286 62 192 226 291 297 326 342 330 333 350 344 358 352 343 338